Weather History for Clarksville, TN

Change the Weather History Date:

Tuesday, February 19, 2013

  Actual Average Record
Temperature  
Mean Temperature 39 °F -  
Max Temperature 49 °F - 75 °F (1951)
Min Temperature 29 °F - -3 °F (1978)
Degree Days  
Heating Degree Days 26    
Month to date heating degree days 462  
Since 1 July heating degree days 2689  
Cooling Degree Days 0    
Month to date cooling degree days 0  
Moisture  
Dew Point 30 °F    
Average Humidity 58    
Maximum Humidity 82    
Minimum Humidity 33    
Precipitation  
Precipitation 0.02 in - 1.06 in (1957)
Month to date precipitation 1.12  
Sea Level Pressure  
Sea Level Pressure 30.04 in    
Wind  
Wind Speed 12 mph (West)    
Max Wind Speed 24 mph    
Max Gust Speed 31 mph    
Visibility 10 miles    
Events Rain    
T = Trace of Precipitation, MM = Missing Value Source: NWS Daily Summary

Daily Weather History Graph

Daily Weather History Graph

Search for Another Location

Airport:

Trip Planner

Search our weather history database for the weather conditions in past years. The results will help you decide how hot, cold, wet, or windy it might be!

Date:

Astronomy

Feb. 19, 2013 Rise Set
Actual Time 6:32 AM CST 5:34 PM CST
Civil Twilight 6:06 AM CST 6:00 PM CST
Nautical Twilight 5:36 AM CST 6:31 PM CST
Astronomical Twilight 5:06 AM CST 7:01 PM CST
Moon 12:10 PM CST (2/19) 1:59 AM CST (2/19)
Length of Visible Light 11h 54m
Length of Day
11h 01m
Waxing Gibbous, 67% of the Moon is Illuminated
Feb 19
Waxing Gibbous
Feb 25
Full
Mar 4
Last Quarter
Mar 11
New
Mar 19
First Quarter

Hourly Weather History & Observations

Time (CST) Temp. Windchill Dew Point Humidity Pressure Visibility Wind Dir Wind Speed Gust Speed Precip Events Conditions
12:23 AM 48.2 °F - 46.4 °F 93% 29.84 in 7.0 mi SSW 11.5 mph - 0.00 in Rain Light Rain
12:50 AM 48.2 °F - 46.4 °F 93% 29.84 in 6.0 mi SSW 9.2 mph - 0.01 in Rain Light Rain
12:52 AM 48.9 °F - 46.9 °F 93% 29.84 in 6.0 mi SW 13.8 mph - 0.01 in Rain Light Rain
1:21 AM 48.2 °F - 46.4 °F 93% 29.85 in 8.0 mi WSW 12.7 mph 20.7 mph 0.01 in Rain Light Rain
1:31 AM 46.4 °F 39.0 °F 42.8 °F 87% 29.87 in 9.0 mi WNW 19.6 mph 31.1 mph 0.01 in Rain Light Rain
1:52 AM 45.0 °F 39.3 °F 41.0 °F 86% 29.88 in 10.0 mi West 11.5 mph 21.9 mph 0.01 in   Overcast
2:07 AM 44.6 °F 37.8 °F 41.0 °F 87% 29.89 in 10.0 mi WNW 15.0 mph 23.0 mph N/A   Overcast
2:52 AM 42.1 °F 33.6 °F 37.0 °F 82% 29.92 in 10.0 mi WNW 18.4 mph 24.2 mph N/A   Overcast
3:52 AM 42.1 °F 36.6 °F 37.0 °F 82% 29.93 in 10.0 mi West 9.2 mph - N/A   Overcast
4:26 AM 42.8 °F 36.2 °F 35.6 °F 76% 29.95 in 10.0 mi West 12.7 mph - N/A   Overcast
4:52 AM 41.0 °F 34.3 °F 35.1 °F 79% 29.96 in 10.0 mi West 11.5 mph - N/A   Mostly Cloudy
5:18 AM 41.0 °F 32.5 °F 33.8 °F 76% 29.98 in 10.0 mi WNW 17.3 mph 25.3 mph N/A   Overcast
5:52 AM 39.0 °F 32.3 °F 32.0 °F 76% 30.00 in 10.0 mi WNW 10.4 mph - N/A   Mostly Cloudy
6:37 AM 37.4 °F 27.8 °F 28.4 °F 70% 30.03 in 10.0 mi West 17.3 mph 23.0 mph N/A   Scattered Clouds
6:52 AM 36.0 °F 27.1 °F 28.9 °F 76% 30.04 in 10.0 mi West 13.8 mph 20.7 mph N/A   Clear
7:52 AM 36.0 °F 26.7 °F 28.0 °F 73% 30.07 in 10.0 mi West 15.0 mph 21.9 mph N/A   Clear
8:52 AM 37.0 °F 27.0 °F 25.0 °F 62% 30.09 in 10.0 mi West 18.4 mph 23.0 mph N/A   Clear
9:52 AM 39.0 °F 29.9 °F 23.0 °F 53% 30.11 in 10.0 mi West 17.3 mph 24.2 mph N/A   Clear
10:52 AM 41.0 °F 34.3 °F 25.0 °F 53% 30.12 in 10.0 mi West 11.5 mph 21.9 mph N/A   Clear
12:52 PM 44.1 °F 37.4 °F 21.0 °F 40% 30.11 in 10.0 mi WNW 13.8 mph 28.8 mph N/A   Clear
1:52 PM - - - N/A% 30.10 in - North - - N/A   Unknown
2:52 PM 45.0 °F 38.2 °F 18.0 °F 34% 30.13 in 10.0 mi West 15.0 mph 26.5 mph N/A   Clear
3:52 PM 44.1 °F 36.5 °F 18.0 °F 35% 30.15 in 10.0 mi West 17.3 mph 27.6 mph N/A   Clear
4:52 PM 42.1 °F 33.6 °F 16.0 °F 35% 30.17 in 10.0 mi WNW 18.4 mph 24.2 mph N/A   Clear
6:52 PM 37.9 °F 34.4 °F 18.0 °F 45% 30.19 in 10.0 mi WSW 4.6 mph - N/A   Clear
7:52 PM 37.0 °F 34.5 °F 17.1 °F 44% 30.19 in 10.0 mi SW 3.5 mph - N/A   Clear
8:52 PM 35.1 °F 32.2 °F 18.0 °F 50% 30.21 in 10.0 mi West 3.5 mph - N/A   Clear
9:52 PM 32.0 °F 25.6 °F 18.0 °F 56% 30.25 in 10.0 mi WNW 6.9 mph - N/A   Clear
10:52 PM 32.0 °F 24.2 °F 17.1 °F 54% 30.24 in 10.0 mi NNW 9.2 mph - N/A   Clear
11:52 PM 28.9 °F 19.2 °F 19.9 °F 69% 30.26 in 10.0 mi North 11.5 mph - N/A   Clear